LEMUR 2 DEVERILL-M-T

Satellite information

Favourite Embed

Satellite Type and Status

PAYLOADIN ORBIT

Key statistics

Satellite LEMUR 2 DEVERILL-M-T at a glance.

Uptime

721

Days in orbit

Revolutions

≈ 15.2

Per day

Orbit

SSO

Sun Synchronous Orbit

Inclination

99.4

Latest

Satellite identification and parameters

Extended collection of information and parameters for LEMUR 2 DEVERILL-M-T.

Object identification

Identified? True

Debris? False

Object name: LEMUR 2 DEVERILL-M-T

International designator: 2023-100F

Object number (NORAD): 57391

Object ID (CCSDS): 57391

Country: UNITED STATES OF AMERICA (US)

Current information (Y/N): Y

RCS size: SMALL

Orbital parameters

Period: 94.624 minutes

Inclination: 99.4368 deg

SMA: 6878.534 km

Apoapsis: 508.144 km

Periapsis: 492.655 km

RAAN: 127.4862 deg

Eccentricy: 0.0011259

Argument of periapsis: 113.1069 deg

Mean anomaly: 247.1348 deg

Mean motion: 15.21804701 rev/day

Mean motion (dot): 0.00011827 rev/day2

B* drag term: 0.00052401 1/REarth

Two-line elements (TLE)

Creation date: July 6, 2025, 6:05 p.m.

Reference frame: TEME

Reference center: EARTH

Epoch: July 6, 2025, 8:40 a.m. UTC

TLE line 0: 0 LEMUR 2 DEVERILL-M-T

TLE line 1: 1 57391U 23100F 25187.36118968 .00011827 00000-0 52401-3 0 9990

TLE line 2: 2 57391 99.4368 127.4862 0011259 113.1069 247.1348 15.21804701108350

Live tracking on map

Real-time ground track for satellite LEMUR 2 DEVERILL-M-T.

In-orbit conjunctions

There are no conjunctions computed for LEMUR 2 DEVERILL-M-T, at the moment. Check back to stay up to date, as we update our databases every day.

Go to all conjunctions

Associated space launch

The "Baby Come Back" mission includes NASA's Starling project, which consists of four CubeSats designed to test technologies for future swarm missions. Telesat contributes the LEO 3 demonstration satellite, ensuring continuity for customers and ecosystem vendor testing. Additionally, two 3U satellites carrying GNSS-RO payloads from SpinGlobal will replenish their constellation of over 100 multipurpose satellites.

LEMUR 2 DEVERILL-M-T was lifted into orbit during the mission ‘Electron | Baby Come Back (Rideshare)’, on board a Electron space rocket.

The launch took place on July 18, 2023, 1:27 a.m. from Rocket Lab Launch Complex 1B.

For more information about the launch, click the button.

Launch to space Electron | Baby Come Back (Rideshare)
Electron | Baby Come Back (Rideshare)

Agency: N/A

Status: Launch Successful

Launch date: July 18, 2023, 1:27 a.m. UTC

Rocket: Electron

Launch pad: Rocket Lab Launch Complex 1B

Location: Rocket Lab Launch Complex 1, Mahia Peninsula, New Zealand

...

Latest news about this satellite

News about space launch
NASA boosts science objectives for Starling swarm

NASA is expanding testing of distributed autonomy for its first satellite swarm, Starling. The post NASA boosts science objectives for Starling swarm appeared first on SpaceNews.

News about space launch
Launch Roundup: Rocket Lab conducts Electron reuse attempt, SpaceX flies two Starlink v2 missions

The week of July 16 through July 23 saw four more launches take place around the world, potentially increasing the orbital launch count to 108 so far in 2023. This included Rocket Lab’s launch of the “Baby Come Back” mission (which featured a first stage ...

News about space launch
Rocket Lab launches 7 satellites, recovers first stage booster

The ‘Baby Come Back’ mission successfully lifted off from Launch Complex 1B on the Mahia Peninsula in New Zealand at 01:27 UTC,...


Newsletter sign-up

Weekly statistics, charts and insights to help you stay on top of the space industry.